Location: Bratsk-Energetik
(56.3300°N, 101.7600°E)
Time: 22:11:04
(UTC+08:00)

ISS - Pass Details

Date: 27 May 2017
Orbit: 402 x 409 km, 51.6° (Epoch: 25 May)

Event Time Altitude Azimuth Distance (km) Brightness Sun altitude
Rises 00:45:40 0° 259° (W) 2,332 0.0 -12.3°
Reaches altitude 10° 00:47:50 10° 251° (WSW) 1,470 -1.1 -12.3°
Maximum altitude 00:50:53 36° 183° (S) 668 -3.3 -12.3°
Drops below altitude 10° 00:53:56 10° 115° (ESE) 1,465 -1.3 -12.3°
Sets 00:56:06 0° 107° (ESE) 2,324 -0.2 -12.4°
